Regional Weather Roundup
Issued by NWS

Home | Current Version | Previous Version | Graphics & Text | Print | Product List | Glossary On
Versions: 1 2 3 4 5 6 7 8 9 10 11 12 13 14 15 16 17 18 19 20 21 22 23 24 25 26 27 28 29 30 31 32 33 34 35 36 37 38 39 40 41 42 43 44 45 46 47 48 49 50
000
ASUS43 KFSD 272002
RWRSD

WEATHER ROUNDUP FOR SOUTH DAKOTA
NATIONAL WEATHER SERVICE SIOUX FALLS SD
300 PM CDT TUE SEP 27 2016

NOTE: "FAIR" INDICATES FEW OR NO CLOUDS BELOW 12,000 FEET WITH NO
SIGNIFICANT WEATHER AND/OR OBSTRUCTIONS TO VISIBILITY.


SDZ001>005-009-010-012>017-272100-
NORTHWEST AND NORTH CENTRAL SOUTH DAKOTA

CITY           SKY/WX    TMP DP  RH WIND       PRES   REMARKS
BUFFALO          N/A     82  42  24 W12       29.92F
FAITH            N/A     81  43  26 NW13      29.96F
MOBRIDGE       SUNNY     78  43  28 N7        29.90F
$$

SDZ012>016-024>037-041>051-057-063-072>074-272100-
SOUTHWEST AND SOUTH CENTRAL SOUTH DAKOTA

CITY           SKY/WX    TMP DP  RH WIND       PRES   REMARKS
RAPID CTY ARPT SUNNY     82  44  26 N13       30.00F
PIERRE         SUNNY     79  43  27 NW15      29.91F
CUSTER         SUNNY     76  31  19 W13G22    30.13F
ELLSWORTH AFB  SUNNY     81  45  28 N12       30.00
PHILIP         SUNNY     85  40  20 NW16G23   29.94F
PINE RIDGE     SUNNY     83  38  20 N9G17     30.02F
WINNER         FAIR      82  41  23 W9G18     29.93F
$$

SDZ004>011-016>023-039-040-272100-
NORTHEAST SOUTH DAKOTA

CITY           SKY/WX    TMP DP  RH WIND       PRES   REMARKS
ABERDEEN       SUNNY     74  37  26 N16G22    29.90F
WATERTOWN      SUNNY     69  37  30 NW17G24   29.88F
SISSETON         N/A     70  30  22 N17G26    29.85F
$$

SDZ017-020-022-023-036>040-048>070-272100-
SOUTHEAST SOUTH DAKOTA

CITY           SKY/WX    TMP DP  RH WIND       PRES   REMARKS
SIOUX FALLS    MOSUNNY   73  43  33 NW17G28   29.89F
HURON          SUNNY     77  42  28 NW13G21   29.88F
CHAMBERLAIN    SUNNY     80  46  29 NW13G18   29.91F
MITCHELL       SUNNY     78  41  26 N17G25    29.89F
YANKTON        SUNNY     75  43  31 W15       29.89F
$$

ABBREVIATIONS USED IN REMARKS
   TC - TEMPERATURE IN CELSIUS
  WCI - WIND CHILL INDEX
   HX - HEAT INDEX
  VSB - VISIBILITY





USA.gov is the U.S. government's official web portal to all federal, state and local government web resources and services.